Wendy C — WYB6131 — position and weather

sailwx.info

Track history (hours):
 
Tides and Currents Weather Stations Pressure Air Temp Water Temp Dewpoint Dewpoint Depression Visibility Wind Speed Wind Dir Waves Ship Positions

Wendy C

Owner: Harbor Towing & Fleeting, Inc., Metairie, LA. More information available from US FCC via Universal Licensing System and Coast Guard Vessel Documentation Center.

Last reported at 2014-Nov-28 11:19 UTC. Time now 2014-Nov-29 01:22 UTC.
Position N 29°56' W 090°00'.

Length 19 m; draft 3 m.

Type: Towing. MMSI: 366160126.

Date/timePositionNaut miles runAvg speedWind from/ knotsBaromVisibWave heightAir tempDewpointWater temp
2014-Nov-28 11:19N 29°56' W 090°00'0 0.0
2014-Nov-28 10:18N 29°56' W 090°00'1 1.1
2014-Nov-28 09:31N 29°57' W 090°01'2 2.4
2014-Nov-28 08:31N 29°59' W 090°01'1 1.5
2014-Nov-28 07:33N 29°58' W 090°02'1 1.0
2014-Nov-28 06:31N 29°57' W 090°01'1 0.8
2014-Nov-28 05:26N 29°56' W 090°00'1 1.6
2014-Nov-28 04:33N 29°57' W 090°02'2 2.1
2014-Nov-28 03:33N 29°59' W 090°01'1 0.7
2014-Nov-28 02:29N 29°60' W 090°00'2 2.6
2014-Nov-28 01:32N 29°58' W 090°02'1 0.7
2014-Nov-28 00:31N 29°57' W 090°01'3 0.2
2014-Nov-27 10:28N 29°60' W 090°00'1 0.5
2014-Nov-27 09:11N 29°59' W 090°01'2 2.6
2014-Nov-27 08:32N 29°58' W 090°02'4 3.0
2014-Nov-27 07:15N 29°55' W 089°58'2 0.3
2014-Nov-27 01:14N 29°56' W 090°00'0 0.2
2014-Nov-27 00:31N 29°56' W 090°00'2 0.2
2014-Nov-26 12:29N 29°56' W 089°58'1 0.0
2014-Nov-24 18:27N 29°56' W 089°60'1 0.6
2014-Nov-24 17:21N 29°56' W 090°00'0 0.0
2014-Nov-24 16:32N 29°56' W 090°00'0 0.0
2014-Nov-24 15:33N 29°56' W 090°00'0 0.0
2014-Nov-24 14:31N 29°56' W 090°00'0 0.0
2014-Nov-24 13:33N 29°56' W 090°00'2 0.1
2014-Nov-23 15:32N 29°58' W 090°02'3 2.5
2014-Nov-23 14:26N 29°60' W 089°59'3 3.1
2014-Nov-23 13:29N 29°58' W 090°02'1 1.5
2014-Nov-23 12:33N 29°57' W 090°01'0 0.3
2014-Nov-23 11:11N 29°56' W 090°00'0 0.0
2014-Nov-23 10:33N 29°56' W 090°00'0 0.0
2014-Nov-23 09:30N 29°56' W 090°00'3 3.2
2014-Nov-23 08:27N 29°60' W 090°01'0 0.3
2014-Nov-23 07:32N 29°60' W 090°00'3 2.6
2014-Nov-23 06:32N 29°58' W 090°02'2 1.5
2014-Nov-23 05:11N 29°56' W 090°00'0 0.0
2014-Nov-23 04:18N 29°56' W 090°00'0 0.2
2014-Nov-23 03:33N 29°56' W 090°00'0 0.0
2014-Nov-23 02:32N 29°56' W 090°00'0 0.0
2014-Nov-23 01:28N 29°56' W 090°00'0 0.0
2014-Nov-23 00:31N 29°56' W 090°00'0 0.0
2014-Nov-22 23:27N 29°56' W 090°00'0 0.0
2014-Nov-22 22:33N 29°56' W 090°00'1 0.8
2014-Nov-22 21:33N 29°56' W 089°59'1 1.2
2014-Nov-22 20:32N 29°57' W 090°00'2 1.8
2014-Nov-22 19:33N 29°58' W 090°02'2 1.8
2014-Nov-22 18:31N 29°60' W 090°01'3 2.6
2014-Nov-22 17:32N 29°57' W 090°01'2 1.5
2014-Nov-22 16:33N 29°56' W 090°00'0 0.1
2014-Nov-22 15:19N 29°56' W 090°00'0 0.0
2014-Nov-22 14:34N 29°56' W 090°00'0 0.0
2014-Nov-22 13:31N 29°56' W 090°00'0 0.1
2014-Nov-22 12:27N 29°56' W 090°00'2 0.1
2014-Nov-21 20:10N 29°58' W 090°02'0 0.0
2014-Nov-21 19:30N 29°58' W 090°02'1 0.7
2014-Nov-21 18:24N 29°58' W 090°02'1 1.2
2014-Nov-21 17:29N 29°59' W 090°01'1 1.2
2014-Nov-21 16:31N 29°58' W 090°02'2 1.9
2014-Nov-21 15:31N 29°56' W 090°00'0 0.0
2014-Nov-21 14:26N 29°56' W 090°00'0 0.0
2014-Nov-21 13:33N 29°56' W 090°00'0 0.0
2014-Nov-21 12:25N 29°56' W 090°00'0 0.0
2014-Nov-21 11:28N 29°56' W 090°00'0 0.0
2014-Nov-21 10:29N 29°56' W 090°00'3 1.3
2014-Nov-21 08:11N 29°55' W 089°57'5 6.3
2014-Nov-21 07:28N 29°58' W 090°02'0 0.5
2014-Nov-21 06:29N 29°58' W 090°01'0 0.3
2014-Nov-21 05:33N 29°58' W 090°02'0 0.3
2014-Nov-21 04:32N 29°58' W 090°02'2 0.6
2014-Nov-21 01:21N 29°56' W 090°00'2 2.2
2014-Nov-21 00:30N 29°58' W 090°02'2 1.7
2014-Nov-20 23:32N 29°59' W 090°01'0 0.0
2014-Nov-20 22:32N 29°59' W 090°01'0 0.0
2014-Nov-20 21:31N 29°59' W 090°01'3 0.1
2014-Nov-19 23:32N 29°56' W 090°00'0 0.0
2014-Nov-19 22:33N 29°56' W 090°00'0 0.0
2014-Nov-19 21:23N 29°56' W 090°00'0 0.0
2014-Nov-19 20:32N 29°56' W 090°00'2 2.2
2014-Nov-19 19:31N 29°56' W 089°58'2 2.2
2014-Nov-19 18:32N 29°56' W 090°00'0 0.0
2014-Nov-19 17:33N 29°56' W 090°00'0 0.0
2014-Nov-19 16:30N 29°56' W 090°00'2 2.0
2014-Nov-19 15:31N 29°58' W 090°02'3 3.0
2014-Nov-19 14:31N 29°60' W 089°59'5 5.0
2014-Nov-19 13:33N 30°01' W 089°54'0 0.0
2014-Nov-19 12:06N 30°01' W 089°54'1 1.8
2014-Nov-19 11:20N 30°01' W 089°55'5 5.9
2014-Nov-19 10:33N 29°60' W 090°00'4 0.2
2014-Nov-18 18:27N 29°56' W 090°00'3 2.4
2014-Nov-18 17:08N 29°59' W 090°01'1 0.8
2014-Nov-18 16:12N 29°60' W 090°00'2 3.1
2014-Nov-18 15:33N 29°58' W 090°02'1 1.2
2014-Nov-18 14:21N 29°57' W 090°01'1 0.7
2014-Nov-18 13:32N 29°56' W 090°00'0 0.0
2014-Nov-18 12:33N 29°56' W 090°00'0 0.0
2014-Nov-18 11:33N 29°56' W 090°00'  
Track history (hours):
 
Tides and Currents Weather Stations Pressure Air Temp Water Temp Dewpoint Dewpoint Depression Visibility Wind Speed Wind Dir Waves Ship Positions

Wendy C

Owner: Harbor Towing & Fleeting, Inc., Metairie, LA. More information available from US FCC via Universal Licensing System and Coast Guard Vessel Documentation Center.

Last reported at 2014-Nov-28 11:19 UTC. Time now 2014-Nov-29 01:22 UTC.
Position N 29°56' W 090°00'.

Length 19 m; draft 3 m.

Type: Towing. MMSI: 366160126.

Date/timePositionNaut miles runAvg speedWind from/ knotsBaromVisibWave heightAir tempDewpointWater temp
2014-Nov-28 11:19N 29°56' W 090°00'0 0.0
2014-Nov-28 10:18N 29°56' W 090°00'1 1.1
2014-Nov-28 09:31N 29°57' W 090°01'2 2.4
2014-Nov-28 08:31N 29°59' W 090°01'1 1.5
2014-Nov-28 07:33N 29°58' W 090°02'1 1.0
2014-Nov-28 06:31N 29°57' W 090°01'1 0.8
2014-Nov-28 05:26N 29°56' W 090°00'1 1.6
2014-Nov-28 04:33N 29°57' W 090°02'2 2.1
2014-Nov-28 03:33N 29°59' W 090°01'1 0.7
2014-Nov-28 02:29N 29°60' W 090°00'2 2.6
2014-Nov-28 01:32N 29°58' W 090°02'1 0.7
2014-Nov-28 00:31N 29°57' W 090°01'3 0.2
2014-Nov-27 10:28N 29°60' W 090°00'1 0.5
2014-Nov-27 09:11N 29°59' W 090°01'2 2.6
2014-Nov-27 08:32N 29°58' W 090°02'4 3.0
2014-Nov-27 07:15N 29°55' W 089°58'2 0.3
2014-Nov-27 01:14N 29°56' W 090°00'0 0.2
2014-Nov-27 00:31N 29°56' W 090°00'2 0.2
2014-Nov-26 12:29N 29°56' W 089°58'1 0.0
2014-Nov-24 18:27N 29°56' W 089°60'1 0.6
2014-Nov-24 17:21N 29°56' W 090°00'0 0.0
2014-Nov-24 16:32N 29°56' W 090°00'0 0.0
2014-Nov-24 15:33N 29°56' W 090°00'0 0.0
2014-Nov-24 14:31N 29°56' W 090°00'0 0.0
2014-Nov-24 13:33N 29°56' W 090°00'2 0.1
2014-Nov-23 15:32N 29°58' W 090°02'3 2.5
2014-Nov-23 14:26N 29°60' W 089°59'3 3.1
2014-Nov-23 13:29N 29°58' W 090°02'1 1.5
2014-Nov-23 12:33N 29°57' W 090°01'0 0.3
2014-Nov-23 11:11N 29°56' W 090°00'0 0.0
2014-Nov-23 10:33N 29°56' W 090°00'0 0.0
2014-Nov-23 09:30N 29°56' W 090°00'3 3.2
2014-Nov-23 08:27N 29°60' W 090°01'0 0.3
2014-Nov-23 07:32N 29°60' W 090°00'3 2.6
2014-Nov-23 06:32N 29°58' W 090°02'2 1.5
2014-Nov-23 05:11N 29°56' W 090°00'0 0.0
2014-Nov-23 04:18N 29°56' W 090°00'0 0.2
2014-Nov-23 03:33N 29°56' W 090°00'0 0.0
2014-Nov-23 02:32N 29°56' W 090°00'0 0.0
2014-Nov-23 01:28N 29°56' W 090°00'0 0.0
2014-Nov-23 00:31N 29°56' W 090°00'0 0.0
2014-Nov-22 23:27N 29°56' W 090°00'0 0.0
2014-Nov-22 22:33N 29°56' W 090°00'1 0.8
2014-Nov-22 21:33N 29°56' W 089°59'1 1.2
2014-Nov-22 20:32N 29°57' W 090°00'2 1.8
2014-Nov-22 19:33N 29°58' W 090°02'2 1.8
2014-Nov-22 18:31N 29°60' W 090°01'3 2.6
2014-Nov-22 17:32N 29°57' W 090°01'2 1.5
2014-Nov-22 16:33N 29°56' W 090°00'0 0.1
2014-Nov-22 15:19N 29°56' W 090°00'0 0.0
2014-Nov-22 14:34N 29°56' W 090°00'0 0.0
2014-Nov-22 13:31N 29°56' W 090°00'0 0.1
2014-Nov-22 12:27N 29°56' W 090°00'2 0.1
2014-Nov-21 20:10N 29°58' W 090°02'0 0.0
2014-Nov-21 19:30N 29°58' W 090°02'1 0.7
2014-Nov-21 18:24N 29°58' W 090°02'1 1.2
2014-Nov-21 17:29N 29°59' W 090°01'1 1.2
2014-Nov-21 16:31N 29°58' W 090°02'2 1.9
2014-Nov-21 15:31N 29°56' W 090°00'0 0.0
2014-Nov-21 14:26N 29°56' W 090°00'0 0.0
2014-Nov-21 13:33N 29°56' W 090°00'0 0.0
2014-Nov-21 12:25N 29°56' W 090°00'0 0.0
2014-Nov-21 11:28N 29°56' W 090°00'0 0.0
2014-Nov-21 10:29N 29°56' W 090°00'3 1.3
2014-Nov-21 08:11N 29°55' W 089°57'5 6.3
2014-Nov-21 07:28N 29°58' W 090°02'0 0.5
2014-Nov-21 06:29N 29°58' W 090°01'0 0.3
2014-Nov-21 05:33N 29°58' W 090°02'0 0.3
2014-Nov-21 04:32N 29°58' W 090°02'2 0.6
2014-Nov-21 01:21N 29°56' W 090°00'2 2.2
2014-Nov-21 00:30N 29°58' W 090°02'2 1.7
2014-Nov-20 23:32N 29°59' W 090°01'0 0.0
2014-Nov-20 22:32N 29°59' W 090°01'0 0.0
2014-Nov-20 21:31N 29°59' W 090°01'3 0.1
2014-Nov-19 23:32N 29°56' W 090°00'0 0.0
2014-Nov-19 22:33N 29°56' W 090°00'0 0.0
2014-Nov-19 21:23N 29°56' W 090°00'0 0.0
2014-Nov-19 20:32N 29°56' W 090°00'2 2.2
2014-Nov-19 19:31N 29°56' W 089°58'2 2.2
2014-Nov-19 18:32N 29°56' W 090°00'0 0.0
2014-Nov-19 17:33N 29°56' W 090°00'0 0.0
2014-Nov-19 16:30N 29°56' W 090°00'2 2.0
2014-Nov-19 15:31N 29°58' W 090°02'3 3.0
2014-Nov-19 14:31N 29°60' W 089°59'5 5.0
2014-Nov-19 13:33N 30°01' W 089°54'0 0.0
2014-Nov-19 12:06N 30°01' W 089°54'1 1.8
2014-Nov-19 11:20N 30°01' W 089°55'5 5.9
2014-Nov-19 10:33N 29°60' W 090°00'4 0.2
2014-Nov-18 18:27N 29°56' W 090°00'3 2.4
2014-Nov-18 17:08N 29°59' W 090°01'1 0.8
2014-Nov-18 16:12N 29°60' W 090°00'2 3.1
2014-Nov-18 15:33N 29°58' W 090°02'1 1.2
2014-Nov-18 14:21N 29°57' W 090°01'1 0.7
2014-Nov-18 13:32N 29°56' W 090°00'0 0.0
2014-Nov-18 12:33N 29°56' W 090°00'0 0.0
2014-Nov-18 11:33N 29°56' W 090°00'  

Dump ship's entire track history